Location: Vancouver
(49.2500°N, 123.1330°W)
Time: 15:27:28
(UTC-07:00)

ISS - Visible Passes

Search period start: 26 September 2016 00:00
Search period end: 06 October 2016 00:00
Orbit: 400 x 410 km, 51.6° (Epoch: 27 September)

Date Brightness Start Highest point End Pass type
(mag) Time Alt. Az. Time Alt. Az. Time Alt. Az.
28 Sep -0.9 20:48:52 10° SSW 20:49:30 14° SSW 20:49:30 14° SSW visible
29 Sep -1.5 19:57:39 10° S 19:59:43 16° SE 20:00:04 16° SE visible
29 Sep -0.3 21:32:30 10° WSW 21:32:46 12° WSW 21:32:46 12° WSW visible
30 Sep -2.7 20:40:33 10° SW 20:43:08 41° S 20:43:08 41° S visible
01 Oct -2.3 19:48:48 10° SSW 19:51:41 30° SE 19:53:23 18° E visible
01 Oct -1.0 21:24:43 10° WSW 21:26:03 22° W 21:26:03 22° W visible
02 Oct -3.5 20:32:34 10° WSW 20:35:50 81° SSE 20:36:08 70° E visible
03 Oct -3.1 19:40:31 10° SW 19:43:43 55° SSE 19:46:08 16° ENE visible
03 Oct -1.3 21:17:00 10° W 21:18:48 29° WNW 21:18:48 29° WNW visible
04 Oct -3.2 20:24:45 10° W 20:28:01 69° NNW 20:28:43 49° NE visible
05 Oct -3.4 19:32:32 10° WSW 19:35:48 89° NNW 19:38:34 14° ENE visible
05 Oct -1.5 21:09:15 10° WNW 21:11:13 31° WNW 21:11:13 31° WNW visible
